| time (UTC) | temp F | wind direction | speed knots | gust knots | rain 1hr in | rain 24hr in | rain mn in | humidity % | barometer mb |
| 20260505230020 | 58 | 332 | 3.5 | 7.8 | 0.13 | 0.72 | 0.72 | 99 | 1008.9 |
| 20260505225133 | 63 | 315 | 3.5 | 7.8 | 0.06 | 0.64 | 0.64 | 99 | 1008.7 |
| 20260505224111 | 63 | 272 | 2.6 | 3.5 | 0.05 | 0.61 | 0.61 | 99 | 1008.5 |
| 20260505223035 | 63 | 254 | 0.9 | 5.2 | 0.04 | 0.60 | 0.60 | 99 | 1008.4 |
| 20260505222043 | 63 | 232 | 1.7 | 3.5 | 0.05 | 0.60 | 0.60 | 99 | 1008.4 |
| 20260505221028 | 63 | 203 | 2.6 | 5.2 | 0.04 | 0.59 | 0.59 | 99 | 1008.5 |
| 20260505220032 | 63 | 227 | 1.7 | 6.1 | 0.04 | 0.59 | 0.59 | 99 | 1008.5 |
| 20260505215020 | 63 | 200 | 0.9 | 3.5 | 0.03 | 0.58 | 0.58 | 99 | 1008.5 |
| 20260505214026 | 63 | 191 | 0.0 | 1.7 | 0.02 | 0.56 | 0.56 | 99 | 1008.4 |
| 20260505213030 | 63 | 198 | 0.9 | 2.6 | 0.02 | 0.56 | 0.56 | 99 | 1008.4 |
| 20260505212018 | 63 | 240 | 0.0 | 2.6 | 0.02 | 0.55 | 0.55 | 99 | 1008.6 |
| 20260505211024 | 63 | 220 | 1.7 | 2.6 | 0.02 | 0.55 | 0.55 | 99 | 1008.5 |
| 20260505210028 | 63 | 254 | 0.0 | 2.6 | 0.02 | 0.55 | 0.55 | 99 | 1008.3 |
| 20260505205016 | 63 | 219 | 0.9 | 2.6 | 0.02 | 0.55 | 0.55 | 99 | 1008.5 |
| 20260505204022 | 63 | 226 | 0.9 | 2.6 | 0.01 | 0.54 | 0.54 | 99 | 1008.5 |
| 20260505203026 | 63 | 217 | 0.9 | 3.5 | 0.01 | 0.54 | 0.54 | 99 | 1008.5 |
| 20260505202031 | 63 | 213 | 0.9 | 3.5 | 0.01 | 0.53 | 0.53 | 99 | 1008.5 |
| 20260505201040 | 63 | 206 | 2.6 | 6.1 | 0.01 | 0.53 | 0.53 | 99 | 1008.6 |
| 20260505200024 | 63 | 210 | 1.7 | 6.1 | 0.01 | 0.53 | 0.53 | 99 | 1008.8 |
| 20260505195029 | 63 | 204 | 1.7 | 6.1 | 0.01 | 0.53 | 0.53 | 99 | 1008.6 |
| 20260505194017 | 63 | 183 | 0.9 | 2.6 | 0.01 | 0.53 | 0.53 | 99 | 1008.7 |
| 20260505193043 | 62 | 195 | 0.9 | 5.2 | 0.01 | 0.53 | 0.53 | 99 | 1009.0 |
| 20260505192027 | 62 | 207 | 1.7 | 5.2 | 0.00 | 0.52 | 0.52 | 99 | 1009.2 |
| 20260505191032 | 62 | 213 | 1.7 | 5.2 | 0.00 | 0.52 | 0.52 | 99 | 1009.3 |
| 20260505190020 | 62 | 208 | 0.9 | 3.5 | 0.00 | 0.52 | 0.52 | 99 | 1009.1 |
| 20260505185025 | 62 | 191 | 1.7 | 3.5 | 0.00 | 0.52 | 0.52 | 99 | 1009.0 |
| 20260505184030 | 62 | 102 | 0.9 | 3.5 | 0.00 | 0.52 | 0.52 | 99 | 1009.1 |
| 20260505183039 | 62 | 142 | 0.9 | 3.5 | 0.00 | 0.52 | 0.52 | 99 | 1009.3 |
| 20260505182023 | 62 | 195 | 1.7 | 5.2 | 0.00 | 0.52 | 0.52 | 99 | 1009.4 |
| 20260505181027 | 62 | 79 | 0.9 | 2.6 | 0.00 | 0.52 | 0.52 | 99 | 1009.5 |
| 20260505180033 | 62 | 191 | 1.7 | 3.5 | 0.01 | 0.52 | 0.52 | 99 | 1009.6 |
| 20260505175021 | 61 | 220 | 1.7 | 6.1 | 0.02 | 0.52 | 0.52 | 99 | 1009.8 |
| 20260505174046 | 61 | 84 | 0.9 | 3.5 | 0.09 | 0.52 | 0.52 | 99 | 1010.1 |
| 20260505173112 | 61 | 119 | 0.0 | 1.7 | 0.10 | 0.52 | 0.52 | 99 | 1010.1 |
| 20260505172039 | 61 | 277 | 0.0 | 0.9 | 0.10 | 0.52 | 0.52 | 99 | 1010.3 |
| 20260505171024 | 60 | 86 | 0.0 | 0.9 | 0.10 | 0.52 | 0.52 | 99 | 1010.3 |
| 20260505170029 | 60 | 153 | 0.0 | 1.7 | 0.10 | 0.51 | 0.51 | 99 | 1010.4 |
| 20260505165016 | 60 | 204 | 0.9 | 5.2 | 0.09 | 0.50 | 0.50 | 99 | 1010.7 |
| 20260505164022 | 60 | 180 | 2.6 | 5.2 | 0.03 | 0.43 | 0.43 | 99 | 1010.7 |
| 20260505163027 | 61 | 103 | 0.9 | 3.5 | 0.03 | 0.42 | 0.42 | 99 | 1010.5 |
| 20260505162053 | 60 | 109 | 0.9 | 2.6 | 0.03 | 0.42 | 0.42 | 99 | 1010.5 |
| 20260505161020 | 60 | 184 | 0.9 | 1.7 | 0.04 | 0.42 | 0.42 | 99 | 1010.5 |
| 20260505153022 | 60 | 126 | 0.9 | 3.5 | 0.01 | 0.39 | 0.39 | 99 | 1010.6 |
| 20260505152028 | 60 | 89 | 0.0 | 3.5 | 0.02 | 0.39 | 0.39 | 99 | 1010.4 |
| 20260505151032 | 60 | 0.0 | 0.0 | 0.01 | 0.38 | 0.38 | 99 | 1010.6 | |
| 20260505125018 | 65 | 182 | 1.7 | 3.5 | 0.00 | 0.00 | 0.00 | 75 | 1009.9 |
| 20260505124022 | 64 | 198 | 2.6 | 7.0 | 0.00 | 0.00 | 0.00 | 75 | 1009.8 |
| 20260505123027 | 64 | 200 | 1.7 | 5.2 | 0.00 | 0.00 | 0.00 | 75 | 1009.7 |
| 20260505122032 | 64 | 207 | 1.7 | 2.6 | 0.00 | 0.00 | 0.00 | 75 | 1009.5 |
| 20260505121020 | 63 | 319 | 0.9 | 1.7 | 0.00 | 0.00 | 0.00 | 76 | 1009.4 |
| 20260505120025 | 63 | 123 | 0.9 | 6.1 | 0.00 | 0.00 | 0.00 | 75 | 1009.2 |
| 20260505115050 | 63 | 178 | 1.7 | 5.2 | 0.00 | 0.00 | 0.00 | 75 | 1009.3 |
| 20260505114017 | 63 | 157 | 1.7 | 2.6 | 0.00 | 0.00 | 0.00 | 75 | 1009.1 |
| 20260505113023 | 63 | 218 | 0.0 | 1.7 | 0.00 | 0.00 | 0.00 | 76 | 1009.0 |
| 20260505112028 | 62 | 159 | 0.9 | 3.5 | 0.00 | 0.00 | 0.00 | 75 | 1009.0 |
| 20260505111033 | 62 | 103 | 0.9 | 2.6 | 0.00 | 0.00 | 0.00 | 75 | 1008.8 |
| 20260505102043 | 62 | 100 | 0.9 | 1.7 | 0.00 | 0.00 | 0.00 | 76 | 1009.1 |
| 20260505101028 | 62 | 243 | 0.0 | 0.9 | 0.00 | 0.00 | 0.00 | 76 | 1009.2 |
| 20260505100033 | 62 | 96 | 0.0 | 1.7 | 0.00 | 0.00 | 0.00 | 75 | 1009.2 |
| 20260505095021 | 62 | 83 | 0.0 | 0.9 | 0.00 | 0.00 | 0.00 | 74 | 1009.4 |
| 20260505094026 | 63 | 200 | 0.9 | 2.6 | 0.00 | 0.00 | 0.00 | 72 | 1009.6 |
| 20260505093052 | 63 | 207 | 0.9 | 2.6 | 0.00 | 0.00 | 0.00 | 71 | 1009.5 |
| 20260505092036 | 63 | 209 | 0.9 | 2.6 | 0.00 | 0.00 | 0.00 | 72 | 1009.5 |
| 20260505091024 | 63 | 181 | 0.9 | 3.5 | 0.00 | 0.00 | 0.00 | 72 | 1009.4 |
| 20260505090029 | 64 | 201 | 1.7 | 3.5 | 0.00 | 0.00 | 0.00 | 71 | 1009.6 |
| 20260505085017 | 63 | 213 | 0.0 | 2.6 | 0.00 | 0.00 | 0.00 | 72 | 1009.6 |
| 20260505084022 | 63 | 200 | 0.9 | 1.7 | 0.00 | 0.00 | 0.00 | 72 | 1009.8 |
| 20260505083048 | 63 | 295 | 0.0 | 1.7 | 0.00 | 0.00 | 0.00 | 72 | 1009.4 |
| 20260505082031 | 64 | 202 | 0.9 | 2.6 | 0.00 | 0.00 | 0.00 | 71 | 1009.4 |
| 20260505081020 | 64 | 210 | 1.7 | 2.6 | 0.00 | 0.00 | 0.00 | 69 | 1009.6 |
| 20260505080025 | 64 | 195 | 1.7 | 2.6 | 0.00 | 0.00 | 0.00 | 70 | 1009.5 |
| 20260505075030 | 64 | 199 | 1.7 | 2.6 | 0.00 | 0.00 | 0.00 | 69 | 1009.6 |
| 20260505074038 | 64 | 207 | 0.9 | 3.5 | 0.00 | 0.00 | 0.00 | 69 | 1009.4 |
| 20260505073022 | 65 | 199 | 0.9 | 3.5 | 0.00 | 0.00 | 0.00 | 68 | 1009.1 |
| 20260505072109 | 65 | 191 | 1.7 | 3.5 | 0.00 | 0.00 | 0.00 | 68 | 1008.9 |
| 20260505071033 | 65 | 192 | 0.9 | 2.6 | 0.00 | 0.00 | 0.00 | 67 | 1008.9 |
| 20260505070021 | 65 | 211 | 1.7 | 5.2 | 0.00 | 0.00 | 0.00 | 66 | 1009.2 |
| 20260505065025 | 66 | 208 | 2.6 | 7.8 | 0.00 | 0.00 | 0.00 | 65 | 1009.3 |
| 20260505064030 | 66 | 198 | 2.6 | 6.1 | 0.00 | 0.00 | 0.00 | 66 | 1009.4 |
| 20260505063019 | 66 | 216 | 1.7 | 3.5 | 0.00 | 0.00 | 0.00 | 65 | 1009.3 |
| 20260505062023 | 66 | 209 | 2.6 | 6.1 | 0.00 | 0.00 | 0.00 | 64 | 1009.3 |
| 20260505061028 | 66 | 177 | 2.6 | 6.1 | 0.00 | 0.00 | 0.00 | 64 | 1008.9 |
| 20260505060037 | 66 | 209 | 2.6 | 6.1 | 0.00 | 0.00 | 0.00 | 64 | 1009.1 |
| 20260505055021 | 66 | 196 | 2.6 | 7.0 | 0.00 | 0.00 | 0.00 | 63 | 1009.4 |
| 20260505054027 | 67 | 201 | 2.6 | 5.2 | 0.00 | 0.00 | 0.00 | 63 | 1009.7 |
| 20260505053052 | 67 | 187 | 1.7 | 6.1 | 0.00 | 0.00 | 0.00 | 63 | 1009.7 |
| 20260505052020 | 67 | 202 | 2.6 | 5.2 | 0.00 | 0.00 | 0.00 | 63 | 1009.7 |
| 20260505051024 | 67 | 185 | 2.6 | 5.2 | 0.00 | 0.00 | 0.00 | 63 | 1009.9 |
| 20260505041020 | 70 | 203 | 5.2 | 7.8 | 0.00 | 0.00 | 0.00 | 58 | 1009.6 |
| 20260505040025 | 70 | 196 | 3.5 | 8.7 | 0.00 | 0.00 | 0.00 | 58 | 1009.9 |
| 20260505035030 | 70 | 201 | 3.5 | 6.1 | 0.00 | 0.00 | 0.00 | 57 | 1009.9 |
| 20260505034059 | 70 | 205 | 1.7 | 5.2 | 0.00 | 0.00 | 0.00 | 58 | 1009.9 |
| 20260505033023 | 69 | 193 | 3.5 | 6.1 | 0.00 | 0.00 | 0.00 | 57 | 1010.1 |
| 20260505032028 | 69 | 203 | 1.7 | 3.5 | 0.00 | 0.00 | 0.00 | 58 | 1010.0 |
| 20260505031053 | 70 | 215 | 1.7 | 3.5 | 0.00 | 0.00 | 0.00 | 57 | 1009.8 |
| 20260505030021 | 70 | 219 | 1.7 | 3.5 | 0.00 | 0.00 | 0.00 | 57 | 1009.8 |
| 20260505025026 | 70 | 209 | 1.7 | 3.5 | 0.00 | 0.00 | 0.00 | 57 | 1009.6 |
| 20260505024031 | 71 | 224 | 1.7 | 3.5 | 0.00 | 0.00 | 0.00 | 55 | 1009.6 |
| 20260505023039 | 71 | 216 | 1.7 | 5.2 | 0.00 | 0.00 | 0.00 | 55 | 1009.5 |
| 20260505022023 | 71 | 234 | 1.7 | 3.5 | 0.00 | 0.00 | 0.00 | 54 | 1009.2 |
| 20260505021028 | 72 | 207 | 2.6 | 5.2 | 0.00 | 0.00 | 0.00 | 53 | 1009.2 |
| 20260505020016 | 72 | 205 | 2.6 | 6.1 | 0.00 | 0.00 | 0.00 | 53 | 1008.9 |
| 20260505015022 | 72 | 197 | 2.6 | 5.2 | 0.00 | 0.00 | 0.00 | 52 | 1008.6 |
| 20260505014027 | 72 | 198 | 2.6 | 7.0 | 0.00 | 0.00 | 0.00 | 51 | 1008.5 |
| 20260505013031 | 72 | 200 | 2.6 | 6.1 | 0.00 | 0.00 | 0.00 | 51 | 1008.7 |
| 20260505012100 | 73 | 187 | 2.6 | 6.1 | 0.00 | 0.00 | 0.00 | 50 | 1008.5 |
| 20260505011045 | 73 | 232 | 2.6 | 5.2 | 0.00 | 0.00 | 0.00 | 50 | 1008.4 |
| 20260505010049 | 74 | 198 | 3.5 | 7.0 | 0.00 | 0.00 | 0.00 | 49 | 1008.2 |
| 20260505005017 | 74 | 197 | 2.6 | 5.2 | 0.00 | 0.00 | 0.00 | 49 | 1008.0 |
| 20260505004043 | 75 | 190 | 2.6 | 3.5 | 0.00 | 0.00 | 0.00 | 48 | 1008.3 |
| 20260505003027 | 75 | 204 | 2.6 | 7.0 | 0.00 | 0.00 | 0.00 | 47 | 1008.3 |
| 20260505002033 | 76 | 201 | 4.3 | 9.6 | 0.00 | 0.00 | 0.00 | 46 | 1008.4 |
| 20260505001020 | 76 | 201 | 3.5 | 7.8 | 0.00 | 0.00 | 0.00 | 46 | 1008.5 |
| 20260505000025 | 77 | 221 | 4.3 | 8.7 | 0.00 | 0.00 | 0.00 | 45 | 1008.4 |
| 20260504235050 | 77 | 203 | 4.3 | 13.0 | 0.00 | 0.00 | 0.00 | 45 | 1008.4 |
| 20260504234018 | 77 | 201 | 4.3 | 12.2 | 0.00 | 0.00 | 0.00 | 45 | 1008.6 |
| 20260504233023 | 77 | 204 | 4.3 | 13.0 | 0.00 | 0.00 | 0.00 | 45 | 1008.8 |
| 20260504232028 | 77 | 221 | 6.1 | 16.5 | 0.00 | 0.00 | 0.00 | 45 | 1008.9 |
| 20260504231016 | 78 | 214 | 4.3 | 9.6 | 0.00 | 0.00 | 0.00 | 44 | 1009.0 |